Location: Brunsen
(51.8651°N, 9.8610°E)
Time: 19:47:20
(UTC+00:00)

CZ-2C R/B - Pass Details

Date: 14 August 2024
Orbit: 782 x 869 km, 98.3° (Epoch: 07 September)

Event Time Altitude Azimuth Distance (km) Brightness Sun altitude
Exits shadow 01:14:13 32° 177° (S) 1,410 3.4 -19.8°
Maximum altitude 01:16:50 75° 256° (WSW) 874 2.6 -19.6°
Drops below altitude 10° 01:22:15 10° 342° (NNW) 2,439 5.7 -19.2°
Sets 01:24:35 0° 345° (NNW) 3,363 6.5 -19.0°
